User: anonymous   Login
Location: Stigler
(35.2540°N, 95.1230°W)
Time: 09:28:08
(UTC-06:00)
Language:

Cosmos 1805 - Orbit

View from above orbital plane
View from above orbital plane
View from above satellite
View from above satellite

Ground track
Ground track

The orbit data is extracted from the following two-line orbital elements,

1 17191U 86097A   15030.08311560  .00003930  00000-0  24691-3 0   948
2 17191 082.4910 164.0782 0005404 191.9424 168.1678 15.08992859532425
Epoch (UTC): 30 January 2015 01:59:41
Eccentricity: 0.0005404
inclination: 82.4910°
perigee height: 535 km
apogee height: 543 km
right ascension of ascending node: 164.0782°
argument of perigee: 191.9424°
revolutions per day: 15.08992859
mean anomaly at epoch: 168.1678°
orbit number at epoch: 53242

The dashed part of the orbit path shows where the satellite is in the earth's shadow,  

DLR